IT9NKT-WX Weather Reports


Display with metric or nautical units.
time (UTC)temp
F
wind
direction
speed
MPH
gust
MPH
rain 1hr
in
rain 24hr
in
rain mn
in
humidity
%
barometer
mb
20260510234504 64 171 0.0 1.0 0.00 0.04 0.00 65 1015.3
20260510234003 64 193 0.0 1.0 0.00 0.04 0.00 65 1015.3
20260510233504 65 199 0.0 1.0 0.00 0.04 0.00 64 1015.4
20260510233004 65 194 0.0 1.0 0.00 0.04 0.00 64 1015.5
20260510232503 65 190 0.0 2.0 0.00 0.04 0.00 64 1015.5
20260510232004 65 182 0.0 2.0 0.00 0.04 0.00 64 1015.4
20260510231712 64 177 0.0 1.0 0.00 0.04 0.00 65 1015.3
20260510230504 64 184 0.0 2.0 0.00 0.04 0.00 66 1015.3
20260510230004 65 172 0.0 2.0 0.00 0.04 0.00 65 1015.5
20260510225504 65 171 1.0 2.0 0.00 0.04 0.00 65 1015.6
20260510225004 65 168 1.0 2.0 0.00 0.04 0.00 65 1015.5
20260510224713 65 159 1.0 2.0 0.00 0.04 0.00 65 1015.4
20260510224004 65 185 0.0 2.0 0.00 0.04 0.00 66 1015.5
20260510223504 65 198 0.0 2.0 0.00 0.04 0.00 66 1015.8
20260510223212 65 195 0.0 1.0 0.00 0.04 0.00 66 1015.6
20260510222503 65 186 0.0 1.0 0.00 0.04 0.00 66 1015.5
20260510222004 65 187 0.0 1.0 0.00 0.04 0.00 66 1015.4
20260510221503 65 184 0.0 1.0 0.00 0.04 0.00 66 1015.5
20260510221003 65 184 1.0 2.0 0.00 0.04 0.00 67 1015.6
20260510220504 65 186 0.0 2.0 0.00 0.04 0.00 67 1015.5
20260510220220 65 181 0.0 1.0 0.00 0.04 0.00 67 1015.4
20260510215504 65 179 0.0 1.0 0.00 0.04 0.04 67 1015.5
20260510215216 65 0 0.0 0.0 0.00 0.04 0.04 67 1015.5
20260510214504 65 189 0.0 1.0 0.00 0.04 0.04 67 1015.5
20260510214003 65 187 0.0 1.0 0.00 0.04 0.04 66 1015.5
20260510213503 66 187 0.0 1.0 0.00 0.04 0.04 66 1015.6
20260510213003 66 191 0.0 2.0 0.00 0.04 0.04 66 1015.7
20260510212503 66 187 0.0 2.0 0.00 0.04 0.04 66 1015.7
20260510212003 66 181 0.0 1.0 0.00 0.04 0.04 67 1015.7
20260510211503 65 183 0.0 1.0 0.00 0.04 0.04 68 1015.6
20260510211004 65 187 0.0 1.0 0.00 0.04 0.04 74 1015.8
20260510210503 66 197 0.0 1.0 0.00 0.04 0.04 77 1015.8
20260510210003 66 0 0.0 0.0 0.00 0.04 0.04 77 1015.8
20260510205504 66 0 0.0 0.0 0.00 0.04 0.04 77 1015.6
20260510205003 66 0 0.0 0.0 0.00 0.04 0.04 76 1015.7
20260510204715 67 0 0.0 0.0 0.00 0.04 0.04 76 1015.8
20260510204004 66 0 0.0 0.0 0.00 0.04 0.04 75 1015.8
20260510203716 66 0 0.0 0.0 0.00 0.04 0.04 75 1015.4
20260510203214 66 0 0.0 0.0 0.00 0.04 0.04 75 1015.7
20260510202503 66 0 0.0 0.0 0.00 0.04 0.04 76 1015.6
20260510202003 67 0 0.0 0.0 0.00 0.04 0.04 76 1015.5
20260510201504 67 0 0.0 0.0 0.00 0.04 0.04 76 1015.4
20260510201004 67 175 0.0 1.0 0.00 0.04 0.04 76 1015.4
20260510200713 67 176 0.0 1.0 0.00 0.04 0.04 76 1015.5
20260510200003 67 167 0.0 2.0 0.00 0.04 0.04 77 1015.7
20260510195714 67 168 0.0 2.0 0.00 0.04 0.04 77 1015.8
20260510195004 67 175 0.0 1.0 0.00 0.04 0.04 76 1015.6
20260510194715 67 170 0.0 2.0 0.00 0.04 0.04 76 1015.8
20260510194004 67 165 1.0 2.0 0.00 0.04 0.04 75 1015.8
20260510193504 68 158 0.0 2.0 0.00 0.04 0.04 74 1015.6
20260510193005 67 151 0.0 2.0 0.00 0.04 0.04 73 1015.8
20260510192503 68 142 0.0 2.0 0.00 0.04 0.04 72 1015.6
20260510192003 67 117 0.0 2.0 0.00 0.04 0.04 71 1015.6
20260510191505 68 150 0.0 2.0 0.00 0.04 0.04 70 1015.6
20260510191004 68 154 1.0 2.0 0.00 0.04 0.04 70 1015.6
20260510190503 68 115 1.0 2.0 0.00 0.04 0.04 69 1015.3
20260510190004 68 94 1.0 3.0 0.00 0.04 0.04 68 1015.1
20260510185504 68 133 0.0 3.0 0.00 0.04 0.04 69 1015.2
20260510185004 68 133 1.0 6.0 0.00 0.04 0.04 69 1015.1
20260510184503 68 111 1.0 6.0 0.00 0.04 0.04 69 1015.3
20260510184003 68 105 1.0 4.0 0.00 0.04 0.04 68 1015.0
20260510183504 68 128 1.0 4.0 0.00 0.04 0.04 67 1015.0
20260510183004 69 136 1.0 4.0 0.00 0.04 0.04 64 1014.9
20260510182504 69 126 1.0 4.0 0.00 0.04 0.04 62 1015.0
20260510182004 69 112 1.0 6.0 0.00 0.04 0.04 62 1015.0
20260510181505 69 105 1.0 6.0 0.00 0.04 0.04 60 1014.9
20260510181003 69 121 1.0 4.0 0.00 0.04 0.04 59 1015.0
20260510180504 69 131 1.0 2.0 0.00 0.04 0.04 60 1015.0
20260510180004 69 130 1.0 3.0 0.00 0.04 0.04 59 1014.9
20260510175504 69 133 1.0 3.0 0.00 0.04 0.04 58 1015.0
20260510175003 69 114 0.0 2.0 0.00 0.04 0.04 57 1014.9
20260510174503 70 119 1.0 4.0 0.00 0.04 0.04 58 1015.0
20260510174004 70 131 2.0 4.0 0.00 0.04 0.04 55 1015.0
20260510173504 70 148 2.0 4.0 0.00 0.04 0.04 56 1014.7
20260510173004 70 140 2.0 4.0 0.00 0.04 0.04 54 1014.6
20260510172504 70 131 2.0 4.0 0.00 0.04 0.04 51 1014.6
20260510172004 71 134 1.0 4.0 0.00 0.04 0.04 51 1014.7
20260510171503 71 134 1.0 3.0 0.00 0.04 0.04 50 1014.4
20260510171003 71 136 1.0 6.0 0.00 0.04 0.04 50 1014.5
20260510170503 71 100 2.0 6.0 0.00 0.04 0.04 49 1014.6
20260510170004 71 88 2.0 6.0 0.00 0.04 0.04 49 1014.5
20260510165504 71 100 2.0 7.0 0.00 0.04 0.04 49 1014.5
20260510165214 71 100 2.0 7.0 0.00 0.04 0.04 50 1014.5
20260510164717 71 95 2.0 7.0 0.00 0.04 0.04 50 1014.5
20260510164004 71 86 2.0 7.0 0.00 0.04 0.04 51 1014.6
20260510163504 71 80 1.0 7.0 0.00 0.04 0.04 51 1014.7
20260510163003 71 81 2.0 7.0 0.00 0.04 0.04 51 1014.7
20260510162503 71 110 2.0 8.0 0.00 0.04 0.04 51 1014.5
20260510162003 71 142 2.0 8.0 0.00 0.04 0.04 51 1014.5
20260510161715 71 132 2.0 8.0 0.00 0.04 0.04 51 1014.7
20260510161218 71 123 2.0 7.0 0.00 0.04 0.04 51 1014.7
20260510160504 72 137 2.0 6.0 0.00 0.04 0.04 50 1014.8
20260510160214 72 142 2.0 6.0 0.00 0.04 0.04 50 1014.8
20260510155504 72 124 2.0 4.0 0.00 0.04 0.04 50 1015.0
20260510155003 72 112 2.0 6.0 0.00 0.04 0.04 50 1014.8
20260510154504 72 131 2.0 6.0 0.00 0.04 0.04 50 1014.7
20260510154004 73 135 2.0 7.0 0.00 0.04 0.04 50 1014.9
20260510153714 72 145 2.0 7.0 0.00 0.04 0.04 50 1014.8
20260510153004 73 132 2.0 6.0 0.00 0.04 0.04 49 1014.8
20260510152504 73 106 1.0 4.0 0.00 0.04 0.04 48 1015.0
20260510152003 73 94 2.0 7.0 0.00 0.04 0.04 47 1015.0
20260510151503 72 90 1.0 7.0 0.00 0.04 0.04 47 1015.0
20260510151003 72 94 1.0 4.0 0.00 0.04 0.04 49 1015.0
20260510150503 72 110 2.0 6.0 0.00 0.04 0.04 49 1015.1
20260510150004 73 148 2.0 6.0 0.00 0.04 0.04 50 1015.1
20260510145503 73 151 2.0 4.0 0.00 0.04 0.04 47 1015.1
20260510145003 73 124 1.0 6.0 0.00 0.04 0.04 48 1015.1
20260510144503 73 112 1.0 6.0 0.00 0.04 0.04 48 1015.1
20260510144003 73 136 2.0 7.0 0.00 0.04 0.04 49 1015.3
20260510143504 73 125 2.0 7.0 0.00 0.04 0.04 47 1015.4
20260510143212 73 120 2.0 7.0 0.00 0.04 0.04 48 1015.4
20260510142503 74 132 2.0 6.0 0.00 0.04 0.04 46 1015.4
20260510142213 74 122 2.0 6.0 0.00 0.04 0.04 45 1015.4
20260510141504 75 154 1.0 4.0 0.00 0.04 0.04 45 1015.5
20260510141004 75 153 1.0 4.0 0.00 0.04 0.04 44 1015.3
20260510140504 76 120 1.0 7.0 0.00 0.04 0.04 45 1015.5
20260510140004 75 132 2.0 7.0 0.00 0.04 0.04 43 1015.6
20260510135504 75 150 2.0 4.0 0.00 0.04 0.04 45 1015.5
20260510135004 74 132 2.0 7.0 0.00 0.04 0.04 43 1015.5
20260510134503 74 116 2.0 7.0 0.00 0.04 0.04 44 1015.6
20260510134004 75 138 2.0 6.0 0.00 0.04 0.04 44 1015.7
20260510133715 76 144 1.0 6.0 0.00 0.04 0.04 42 1015.7
20260510133004 75 123 1.0 6.0 0.00 0.04 0.04 44 1015.9
20260510132716 76 121 1.0 6.0 0.00 0.04 0.04 43 1015.7
20260510132003 75 134 2.0 7.0 0.00 0.04 0.04 43 1015.6
20260510131503 75 131 2.0 7.0 0.00 0.04 0.04 43 1015.7
20260510131003 76 143 2.0 4.0 0.00 0.04 0.04 43 1015.7
20260510130504 76 145 2.0 7.0 0.00 0.04 0.04 42 1015.7
20260510130003 75 141 3.0 7.0 0.00 0.04 0.04 42 1015.7
20260510125714 75 126 3.0 7.0 0.00 0.04 0.04 42 1015.8
20260510125004 74 105 2.0 6.0 0.00 0.04 0.04 42 1015.9
20260510124504 74 116 2.0 8.0 0.00 0.04 0.04 42 1016.2
20260510124004 76 103 2.0 8.0 0.00 0.04 0.04 41 1016.0
20260510123504 74 78 2.0 10.0 0.00 0.04 0.04 43 1016.2
20260510123214 74 79 2.0 10.0 0.00 0.04 0.04 42 1016.2
20260510122717 74 89 2.0 10.0 0.00 0.04 0.04 41 1016.4
20260510122003 75 132 3.0 9.0 0.00 0.04 0.04 38 1016.2
20260510121503 76 108 2.0 8.0 0.00 0.04 0.04 39 1016.3
20260510121003 76 85 2.0 7.0 0.00 0.04 0.04 38 1016.3
20260510120504 75 98 3.0 7.0 0.00 0.04 0.04 39 1016.3
20260510120004 75 88 2.0 7.0 0.00 0.04 0.04 40 1016.3
20260510115503 75 76 2.0 6.0 0.00 0.04 0.04 38 1016.3
20260510115004 75 78 2.0 8.0 0.00 0.04 0.04 40 1016.4
20260510114715 75 93 2.0 8.0 0.00 0.04 0.04 40 1016.4
20260510114004 75 106 3.0 7.0 0.00 0.04 0.04 40 1016.6
20260510113504 76 82 2.0 8.0 0.00 0.04 0.04 42 1016.6
20260510113003 75 62 2.0 8.0 0.00 0.04 0.04 43 1016.5
20260510112717 75 76 2.0 6.0 0.00 0.04 0.04 43 1016.6
20260510112215 74 113 2.0 9.0 0.00 0.04 0.04 44 1016.6
20260510111503 75 93 2.0 9.0 0.00 0.04 0.04 43 1016.8
20260510111004 75 99 2.0 6.0 0.00 0.04 0.04 45 1016.6
20260510110504 75 112 3.0 9.0 0.00 0.04 0.04 46 1016.9
20260510110003 74 99 3.0 9.0 0.00 0.04 0.04 46 1016.9
20260510105503 74 95 2.0 7.0 0.00 0.04 0.04 48 1016.7
20260510105213 73 106 2.0 7.0 0.00 0.04 0.04 49 1016.9
20260510104504 74 116 2.0 7.0 0.00 0.04 0.04 50 1016.9
20260510104003 74 109 2.0 7.0 0.00 0.04 0.04 50 1017.0
20260510103504 75 114 2.0 6.0 0.00 0.04 0.04 51 1017.1
20260510103003 74 143 2.0 6.0 0.00 0.04 0.04 51 1016.9
20260510102718 74 168 2.0 6.0 0.00 0.04 0.04 50 1017.3
20260510102003 74 193 3.0 8.0 0.00 0.04 0.04 49 1017.3
20260510101504 74 183 3.0 8.0 0.00 0.04 0.04 51 1017.6
20260510101003 74 154 2.0 6.0 0.00 0.04 0.04 50 1017.4
20260510100503 76 137 2.0 4.0 0.00 0.04 0.04 49 1017.3
20260510100003 73 75 1.0 4.0 0.00 0.04 0.04 53 1017.2
20260510095504 74 100 1.0 5.0 0.00 0.04 0.04 53 1017.2
20260510095004 73 110 2.0 7.0 0.00 0.04 0.04 52 1017.1
20260510094504 73 100 2.0 7.0 0.00 0.04 0.04 52 1017.3
20260510094004 74 84 2.0 7.0 0.00 0.04 0.04 53 1017.3
20260510093503 73 100 2.0 7.0 0.00 0.04 0.04 54 1017.2
20260510093004 75 123 1.0 4.0 0.00 0.04 0.04 51 1017.1
20260510092504 73 106 2.0 7.0 0.00 0.04 0.04 53 1017.2
20260510092004 72 113 2.0 7.0 0.00 0.04 0.04 54 1017.1
20260510091504 72 110 1.0 6.0 0.00 0.04 0.04 53 1017.3
20260510091212 72 98 1.0 6.0 0.00 0.04 0.04 54 1017.2
20260510090503 71 106 1.0 8.0 0.00 0.04 0.04 56 1017.0
20260510090213 72 117 1.0 8.0 0.00 0.04 0.04 56 1017.1
20260510085504 73 79 1.0 8.0 0.00 0.04 0.04 55 1017.2
20260510085003 71 92 2.0 6.0 0.00 0.04 0.04 57 1017.0
20260510084503 72 116 2.0 6.0 0.00 0.04 0.04 58 1017.1
20260510084003 71 101 1.0 6.0 0.00 0.04 0.04 59 1017.2
20260510083504 70 82 1.0 6.0 0.00 0.04 0.04 60 1017.2
20260510083003 71 88 1.0 4.0 0.00 0.04 0.04 61 1017.2
20260510082714 71 95 1.0 3.0 0.00 0.04 0.04 60 1017.3
20260510082004 69 66 1.0 4.0 0.00 0.04 0.04 62 1017.3
20260510081504 69 74 1.0 4.0 0.00 0.04 0.04 63 1017.2
20260510081213 70 107 1.0 3.0 0.00 0.04 0.04 61 1017.3
20260510080504 70 128 2.0 7.0 0.00 0.04 0.04 62 1017.0
20260510080004 70 110 2.0 7.0 0.00 0.04 0.04 63 1017.0
20260510075503 69 94 2.0 7.0 0.00 0.04 0.04 64 1017.1
20260510075004 68 94 2.0 7.0 0.00 0.04 0.04 64 1016.9
20260510074504 69 95 2.0 7.0 0.00 0.04 0.04 66 1017.0
20260510074003 68 101 2.0 9.0 0.00 0.04 0.04 65 1017.1
20260510073503 68 102 2.0 9.0 0.00 0.04 0.04 66 1016.9
20260510073004 68 90 2.0 6.0 0.00 0.04 0.04 67 1017.0
20260510072715 67 95 2.0 8.0 0.00 0.04 0.04 69 1016.7
20260510072213 67 82 2.0 8.0 0.00 0.04 0.04 69 1016.9
20260510071716 67 93 2.0 6.0 0.00 0.04 0.04 69 1017.3
20260510071214 67 99 3.0 9.0 0.00 0.04 0.04 71 1017.0
20260510070504 67 88 2.0 8.0 0.00 0.04 0.04 73 1017.2
20260510070004 67 96 3.0 6.0 0.00 0.04 0.04 75 1017.0
20260510065503 67 91 2.0 9.0 0.00 0.04 0.04 76 1017.2
20260510065004 67 67 2.0 9.0 0.00 0.04 0.04 77 1017.1
20260510064503 66 70 3.0 7.0 0.00 0.04 0.04 80 1017.1
20260510064003 66 94 3.0 9.0 0.00 0.04 0.04 80 1017.2
20260510063504 66 88 3.0 9.0 0.00 0.04 0.04 80 1017.1
20260510063004 66 91 3.0 9.0 0.00 0.04 0.04 80 1017.0
20260510062504 66 109 3.0 9.0 0.00 0.04 0.04 81 1017.0
20260510062003 66 105 3.0 8.0 0.00 0.04 0.04 80 1017.1
20260510061504 66 114 2.0 7.0 0.00 0.04 0.04 80 1017.2
20260510061003 66 144 2.0 6.0 0.00 0.04 0.04 81 1017.3
20260510060504 66 134 1.0 6.0 0.00 0.04 0.04 81 1017.2
20260510060005 66 108 1.0 4.0 0.00 0.04 0.04 82 1016.9
20260510055503 66 91 1.0 4.0 0.00 0.04 0.04 81 1016.8
20260510055216 66 94 1.0 4.0 0.00 0.04 0.04 81 1016.8
20260510054714 65 124 1.0 4.0 0.00 0.04 0.04 82 1016.6
20260510054004 65 141 1.0 3.0 0.00 0.04 0.04 83 1016.9
20260510053504 65 116 1.0 3.0 0.00 0.04 0.04 83 1016.4
20260510053213 64 111 1.0 3.0 0.01 0.04 0.04 84 1016.4
20260510052716 64 97 1.0 3.0 0.01 0.04 0.04 85 1016.4
20260510052003 64 74 1.0 3.0 0.01 0.04 0.04 86 1016.3
20260510051504 64 91 0.0 2.0 0.01 0.04 0.04 86 1016.4
20260510051003 63 128 1.0 2.0 0.01 0.04 0.04 85 1016.8
20260510050503 63 129 1.0 4.0 0.01 0.04 0.04 86 1016.9
20260510050003 63 128 1.0 4.0 0.01 0.04 0.04 85 1016.7
20260510045504 63 132 1.0 3.0 0.01 0.04 0.04 86 1016.6
20260510045004 63 143 1.0 3.0 0.01 0.04 0.04 85 1016.8
20260510044503 63 169 1.0 4.0 0.01 0.04 0.04 85 1016.6
20260510044003 63 154 1.0 4.0 0.01 0.04 0.04 85 1016.6
20260510043503 64 102 1.0 4.0 0.01 0.04 0.04 84 1016.4
20260510043004 64 79 2.0 4.0 0.00 0.03 0.03 83 1016.3
20260510042503 64 42 1.0 5.0 0.00 0.03 0.03 82 1016.3
20260510042004 64 55 2.0 7.0 0.00 0.03 0.03 82 1016.5
20260510041504 64 77 2.0 7.0 0.01 0.03 0.03 82 1016.1
20260510041004 64 70 2.0 7.0 0.01 0.03 0.03 83 1016.3
20260510040503 64 64 2.0 7.0 0.01 0.03 0.03 82 1016.2
20260510040004 64 58 2.0 4.0 0.01 0.03 0.03 82 1016.1
20260510035504 63 48 2.0 6.0 0.01 0.03 0.03 84 1016.1
20260510035003 63 42 1.0 6.0 0.02 0.03 0.03 84 1016.0
20260510034503 63 34 2.0 4.0 0.02 0.03 0.03 86 1016.0
20260510034004 62 37 2.0 8.0 0.02 0.03 0.03 87 1016.1
20260510033716 62 39 2.0 8.0 0.02 0.03 0.03 88 1016.1
20260510033003 62 32 2.0 7.0 0.02 0.03 0.03 89 1016.2
20260510032503 62 35 1.0 4.0 0.02 0.03 0.03 88 1016.8
20260510032003 62 136 0.0 2.0 0.02 0.03 0.03 88 1017.4
20260510031503 62 302 1.0 3.0 0.02 0.02 0.02 87 1018.0
20260510031003 62 340 1.0 3.0 0.02 0.02 0.02 87 1018.3
20260510030503 62 37 0.0 3.0 0.02 0.02 0.02 86 1018.2
20260510030217 62 170 0.0 1.0 0.02 0.02 0.02 86 1018.2
20260510025504 62 204 0.0 1.0 0.02 0.02 0.02 86 1018.2
20260510025003 62 216 0.0 1.0 0.01 0.01 0.01 85 1018.7
20260510024504 62 234 0.0 1.0 0.01 0.01 0.01 85 1018.4
20260510024003 62 222 0.0 1.0 0.01 0.01 0.01 85 1018.5
20260510023717 62 250 1.0 3.0 0.01 0.01 0.01 85 1018.1
20260510023004 62 15 2.0 7.0 0.01 0.01 0.01 85 1018.2
20260510022718 62 44 2.0 7.0 0.01 0.01 0.01 84 1018.0
20260510022003 63 38 1.0 4.0 0.01 0.01 0.01 84 1017.7
20260510021504 63 3 1.0 3.0 0.00 0.00 0.00 83 1018.3
20260510021003 64 41 0.0 2.0 0.00 0.00 0.00 81 1018.7
20260510020715 64 117 0.0 2.0 0.00 0.00 0.00 80 1018.7
20260510020003 63 123 0.0 2.0 0.00 0.00 0.00 80 1018.9
20260510015504 63 186 0.0 2.0 0.00 0.00 0.00 80 1018.7
20260510015214 63 191 1.0 3.0 0.00 0.00 0.00 81 1018.4
20260510014503 64 172 1.0 3.0 0.00 0.00 0.00 81 1018.6
20260510014003 64 112 0.0 1.0 0.00 0.00 0.00 79 1018.7
20260510013503 64 155 0.0 1.0 0.00 0.00 0.00 78 1019.3
20260510013216 64 164 0.0 1.0 0.00 0.00 0.00 78 1019.5
20260510012504 64 162 1.0 3.0 0.00 0.00 0.00 75 1019.4
20260510012003 64 146 1.0 3.0 0.00 0.00 0.00 75 1019.7
20260510011504 64 157 1.0 3.0 0.00 0.00 0.00 73 1020.0
20260510011003 64 207 1.0 3.0 0.00 0.00 0.00 72 1019.9
20260510010504 64 325 1.0 2.0 0.00 0.00 0.00 71 1018.8
20260510010004 64 41 0.0 1.0 0.00 0.00 0.00 71 1017.7
20260510005503 64 82 1.0 2.0 0.00 0.00 0.00 71 1017.3
20260510005003 64 90 1.0 2.0 0.00 0.00 0.00 72 1016.9
20260510004717 64 66 1.0 2.0 0.00 0.00 0.00 72 1017.0
20260510004003 64 60 1.0 3.0 0.00 0.00 0.00 73 1016.6
20260510003504 64 80 1.0 4.0 0.00 0.00 0.00 73 1016.6
20260510003004 64 53 1.0 4.0 0.00 0.00 0.00 73 1016.9
20260510002503 64 16 2.0 4.0 0.00 0.00 0.00 73 1017.2
20260510002004 64 28 1.0 4.0 0.00 0.00 0.00 73 1017.3
20260510001504 64 104 1.0 4.0 0.00 0.00 0.00 73 1017.3
20260510001004 64 185 0.0 2.0 0.00 0.00 0.00 73 1017.6
20260510000503 64 201 0.0 1.0 0.00 0.00 0.00 73 1018.3
20260510000214 64 191 0.0 1.0 0.00 0.00 0.00 73 1018.3
20260509235504 64 94 0.0 1.0 0.00 0.00 0.00 73 1018.1
20260509235004 64 91 0.0 2.0 0.00 0.00 0.00 73 1017.8